Torna al catalogo

THORAD AGENA D DEB

AttivoPO
NORAD 5066·DEBRIS·🇺🇸 United States

Lanciato Apr 8, 1970 da Vandenberg Space Force Base

Loading…

Prossimi Passaggi (prossime 24 ore)

TLE

AggiornatoSource: Space-Track

Epoca: Sep 14, 2026, 03:29 UTC

1 05066U 70025JL  26257.14517194  .00000411  00000-0  28839-3 0  9994
2 05066  99.8600 138.3198 0063792 250.5331 108.8933 14.03828653853143

Traccia THORAD AGENA D DEB in tempo reale con AllMySat

Download on the App Store